Hourly Data Report for February 16, 2018

MIRAMICHI RCS
NEW BRUNSWICK

47°00'34.000" N
65°27'54.000" W
33.00 m
8100989
71744
ACQ

Download Data

Hourly Data (February 2018)
Hourly Data Report for February 16, 2018
TIME
LST
Temp Definition
°C
Dew Point Definition
°C
Rel Hum Definition
%
Precip. Amount Definition
mm

Wind Dir Definition
10's deg

Wind Spd Definition
km/h
Visibility Definition
km
Stn Press Definition
kPa
Hmdx Definition


Wind Chill Definition


Weather Definition


00:00 1.9 0.1 88 0.0 18 10   99.38     LegendNANA
01:00 1.7 0.8 93 0.0 18 12   99.26     LegendNANA
02:00 1.8 1.0 94 0.0 22 12   99.24     LegendNANA
03:00 2.5 0.8 88 0.0 24 16   99.20     LegendNANA
04:00 2.9 0.4 84 0.0 24 17   99.16     LegendNANA
05:00 3.2 0.1 80 0.0 24 21   99.19     LegendNANA
06:00 3.3 0.0 79 0.0 24 21   99.28     LegendNANA
07:00 3.3 -0.5 76 0.0 24 15   99.28     LegendNANA
08:00 3.1 -0.6 77 0.0 24 15   99.30     LegendNANA
09:00 4.3 -0.6 70 0.0 26 18   99.28     LegendNANA
10:00 5.7 -0.5 64 0.0 26 17   99.28     LegendNANA
11:00 4.8 -1.5 64 0.0 32 8   99.29     LegendNANA
12:00 5.1 -3.5 54 0.0 27 13   99.25     LegendNANA
13:00 5.3 -3.5 53 0.0 27 10   99.17     LegendNANA
14:00 5.1 -4.8 49 0.0 30 13   99.18     LegendNANA
15:00 4.3 -4.8 51 0.0 33 11   99.15     LegendNANA
16:00 3.5 -4.6 55 0.0 33 10   99.24     LegendNANA
17:00 3.1 -5.4 54 0.0 32 10   99.26     LegendNANA
18:00 2.0 -5.3 59 0.0 32 12   99.36     LegendNANA
19:00 0.7 -5.8 62 0.0 32 15   99.46     LegendNANA
20:00 -0.1 -8.3 54 0.0 31 17   99.56   -5 LegendNANA
21:00 -1.8 -9.8 54 0.0 31 16   99.71   -7 LegendNANA
22:00 -3.7 -11.5 55 0.0 31 21   99.89   -10 LegendNANA
23:00 -5.2 -14.8 47 0.0 31 24   100.07   -12 LegendNANA

Notes on Data Quality.

Legend

  • E = Estimated
  • M = Missing
  • NA = Not Available*
  • [empty] = Indicates an unobserved value
Date modified: